Time,TemperatureF,DewpointF,PressureIn,WindDirection,WindDirectionDegrees,WindSpeedMPH,WindSpeedGustMPH,Humidity,HourlyPrecipIn,Conditions,Clouds,dailyrainin,SoftwareType,DateUTC
2014-01-19 00:09:00,22.9,10.0,29.93,West,261,2.0,-999.0,57,-99.99,,,0.00,weatherlink.com 1.10,2014-01-19 05:09:00,
2014-01-19 00:24:00,22.9,10.0,29.92,NNW,344,3.0,-999.0,58,-99.99,,,0.00,weatherlink.com 1.10,2014-01-19 05:24:00,
2014-01-19 00:39:00,22.9,10.0,29.93,SW,226,0.0,-999.0,58,-99.99,,,0.00,weatherlink.com 1.10,2014-01-19 05:39:00,
2014-01-19 00:54:00,22.9,10.0,29.94,WSW,247,0.0,-999.0,58,-99.99,,,0.00,weatherlink.com 1.10,2014-01-19 05:54:00,
2014-01-19 01:09:00,22.9,10.0,29.93,WSW,258,2.0,-999.0,58,-99.99,,,0.00,weatherlink.com 1.10,2014-01-19 06:09:00,
2014-01-19 01:24:00,22.9,10.0,29.93,WNW,289,2.0,-999.0,58,-99.99,,,0.00,weatherlink.com 1.10,2014-01-19 06:24:00,
2014-01-19 01:39:00,22.7,10.0,29.93,SSW,205,2.0,-999.0,58,-99.99,,,0.00,weatherlink.com 1.10,2014-01-19 06:39:00,
2014-01-19 01:54:00,22.5,10.0,29.93,West,274,2.0,-999.0,59,-99.99,,,0.00,weatherlink.com 1.10,2014-01-19 06:54:00,
2014-01-19 02:09:00,22.4,10.0,29.93,SW,226,2.0,-999.0,60,-99.99,,,0.00,weatherlink.com 1.10,2014-01-19 07:09:00,
2014-01-19 02:24:00,22.4,10.0,29.93,NW,322,0.0,-999.0,59,-99.99,,,0.00,weatherlink.com 1.10,2014-01-19 07:24:00,
2014-01-19 02:39:00,22.2,10.0,29.93,West,264,0.0,-999.0,60,-99.99,,,0.00,weatherlink.com 1.10,2014-01-19 07:39:00,
2014-01-19 02:54:00,22.1,10.0,29.93,WSW,253,0.0,-999.0,60,-99.99,,,0.00,weatherlink.com 1.10,2014-01-19 07:54:00,
2014-01-19 03:09:00,21.9,10.0,29.93,NW,316,0.0,-999.0,60,-99.99,,,0.00,weatherlink.com 1.10,2014-01-19 08:09:00,
2014-01-19 03:24:00,21.9,11.0,29.92,WNW,287,4.0,-999.0,62,-99.99,,,0.00,weatherlink.com 1.10,2014-01-19 08:24:00,
2014-01-19 03:39:00,22.1,10.0,29.91,SW,217,0.0,-999.0,61,-99.99,,,0.00,weatherlink.com 1.10,2014-01-19 08:39:00,
2014-01-19 03:54:00,22.4,11.0,29.91,WSW,254,1.0,-999.0,61,-99.99,,,0.00,weatherlink.com 1.10,2014-01-19 08:54:00,
2014-01-19 04:09:00,22.7,11.0,29.91,WNW,296,0.0,-999.0,61,-99.99,,,0.00,weatherlink.com 1.10,2014-01-19 09:09:00,
2014-01-19 04:24:00,22.9,11.0,29.91,SSW,212,1.0,-999.0,60,-99.99,,,0.00,weatherlink.com 1.10,2014-01-19 09:24:00,
2014-01-19 04:39:00,22.9,10.0,29.91,WNW,287,0.0,-999.0,59,-99.99,,,0.00,weatherlink.com 1.10,2014-01-19 09:39:00,
2014-01-19 04:54:00,22.9,10.0,29.90,SW,234,0.0,-999.0,59,-99.99,,,0.00,weatherlink.com 1.10,2014-01-19 09:54:00,
2014-01-19 05:09:00,22.9,10.0,29.90,SSW,192,0.0,-999.0,59,-99.99,,,0.00,weatherlink.com 1.10,2014-01-19 10:09:00,
2014-01-19 05:24:00,22.9,11.0,29.90,SSW,192,0.0,-999.0,60,-99.99,,,0.00,weatherlink.com 1.10,2014-01-19 10:24:00,
2014-01-19 05:39:00,22.9,11.0,29.89,WSW,248,1.0,-999.0,60,-99.99,,,0.00,weatherlink.com 1.10,2014-01-19 10:39:00,
2014-01-19 05:54:00,23.0,11.0,29.90,SSW,199,0.0,-999.0,60,-99.99,,,0.00,weatherlink.com 1.10,2014-01-19 10:54:00,
2014-01-19 06:09:00,22.9,11.0,29.91,WNW,288,1.0,-999.0,61,-99.99,,,0.00,weatherlink.com 1.10,2014-01-19 11:09:00,
2014-01-19 06:24:00,22.7,11.0,29.91,WSW,257,0.0,-999.0,60,-99.99,,,0.00,weatherlink.com 1.10,2014-01-19 11:24:00,
2014-01-19 06:39:00,22.7,11.0,29.90,WNW,284,0.0,-999.0,60,-99.99,,,0.00,weatherlink.com 1.10,2014-01-19 11:39:00,
2014-01-19 06:54:00,22.7,11.0,29.90,WNW,284,0.0,-999.0,61,-99.99,,,0.00,weatherlink.com 1.10,2014-01-19 11:54:00,
2014-01-19 07:09:00,22.5,12.0,29.90,SSW,208,2.0,-999.0,64,-99.99,,,0.00,weatherlink.com 1.10,2014-01-19 12:09:00,
2014-01-19 07:24:00,22.2,12.0,29.89,WNW,294,0.0,-999.0,64,-99.99,,,0.00,weatherlink.com 1.10,2014-01-19 12:24:00,
2014-01-19 07:39:00,21.9,12.0,29.88,WNW,287,0.0,-999.0,65,-99.99,,,0.00,weatherlink.com 1.10,2014-01-19 12:39:00,
2014-01-19 07:54:00,21.9,11.0,29.89,SSW,205,0.0,-999.0,64,-99.99,,,0.00,weatherlink.com 1.10,2014-01-19 12:54:00,
2014-01-19 08:09:00,22.5,12.0,29.89,SW,230,3.0,-999.0,64,-99.99,,,0.00,weatherlink.com 1.10,2014-01-19 13:09:00,
2014-01-19 08:24:00,23.2,12.0,29.88,SSW,205,3.0,-999.0,62,-99.99,,,0.00,weatherlink.com 1.10,2014-01-19 13:24:00,
2014-01-19 08:39:00,23.6,12.0,29.88,WNW,296,0.0,-999.0,61,-99.99,,,0.00,weatherlink.com 1.10,2014-01-19 13:39:00,
2014-01-19 08:54:00,24.1,12.0,29.88,SW,233,0.0,-999.0,60,-99.99,,,0.00,weatherlink.com 1.10,2014-01-19 13:54:00,
2014-01-19 09:09:00,24.4,12.0,29.88,SSW,212,0.0,-999.0,60,-99.99,,,0.00,weatherlink.com 1.10,2014-01-19 14:09:00,
2014-01-19 09:24:00,24.8,12.0,29.88,SSW,192,0.0,-999.0,59,-99.99,,,0.00,weatherlink.com 1.10,2014-01-19 14:24:00,
2014-01-19 09:39:00,25.6,12.0,29.87,SSW,200,0.0,-999.0,57,-99.99,,,0.00,weatherlink.com 1.10,2014-01-19 14:39:00,
2014-01-19 09:54:00,26.0,12.0,29.86,SSW,196,0.0,-999.0,55,-99.99,,,0.00,weatherlink.com 1.10,2014-01-19 14:54:00,
2014-01-19 10:09:00,26.9,13.0,29.86,West,281,0.0,-999.0,55,-99.99,,,0.00,weatherlink.com 1.10,2014-01-19 15:09:00,
2014-01-19 10:24:00,27.9,13.0,29.86,WSW,243,0.0,-999.0,54,-99.99,,,0.00,weatherlink.com 1.10,2014-01-19 15:24:00,
2014-01-19 10:39:00,28.7,13.0,29.85,NNW,328,0.0,-999.0,53,-99.99,,,0.00,weatherlink.com 1.10,2014-01-19 15:39:00,
2014-01-19 10:55:00,29.3,14.0,29.85,SSW,209,3.0,-999.0,52,-99.99,,,0.00,weatherlink.com 1.10,2014-01-19 15:55:00,
2014-01-19 11:10:00,30.1,14.0,29.83,SW,217,1.0,-999.0,52,-99.99,,,0.00,weatherlink.com 1.10,2014-01-19 16:10:00,
2014-01-19 11:25:00,31.0,15.0,29.82,North,3,0.0,-999.0,51,-99.99,,,0.00,weatherlink.com 1.10,2014-01-19 16:25:00,
2014-01-19 11:40:00,32.5,16.0,29.81,SSW,209,2.0,-999.0,50,-99.99,,,0.00,weatherlink.com 1.10,2014-01-19 16:40:00,
2014-01-19 11:55:00,34.0,17.0,29.79,SW,227,2.0,-999.0,49,-99.99,,,0.00,weatherlink.com 1.10,2014-01-19 16:55:00,
2014-01-19 12:10:00,35.5,17.0,29.79,WNW,295,6.0,-999.0,47,-99.99,,,0.00,weatherlink.com 1.10,2014-01-19 17:10:00,
2014-01-19 12:25:00,35.2,17.0,29.78,SE,127,0.0,-999.0,47,-99.99,,,0.00,weatherlink.com 1.10,2014-01-19 17:25:00,
2014-01-19 12:40:00,35.2,17.0,29.77,NW,313,0.0,-999.0,48,-99.99,,,0.00,weatherlink.com 1.10,2014-01-19 17:40:00,
2014-01-19 12:55:00,35.5,18.0,29.76,SW,229,6.0,-999.0,50,-99.99,,,0.00,weatherlink.com 1.10,2014-01-19 17:55:00,
2014-01-19 13:10:00,36.3,19.0,29.76,WSW,244,5.0,-999.0,50,-99.99,,,0.00,weatherlink.com 1.10,2014-01-19 18:10:00,
2014-01-19 13:25:00,36.6,19.0,29.75,SW,217,0.0,-999.0,50,-99.99,,,0.00,weatherlink.com 1.10,2014-01-19 18:25:00,
2014-01-19 13:40:00,37.2,20.0,29.74,SW,219,3.0,-999.0,50,-99.99,,,0.00,weatherlink.com 1.10,2014-01-19 18:40:00,
2014-01-19 13:55:00,37.8,20.0,29.74,WSW,247,1.0,-999.0,49,-99.99,,,0.00,weatherlink.com 1.10,2014-01-19 18:55:00,
2014-01-19 14:10:00,37.9,21.0,29.73,SW,232,1.0,-999.0,50,-99.99,,,0.00,weatherlink.com 1.10,2014-01-19 19:10:00,
2014-01-19 14:25:00,38.3,21.0,29.73,WNW,289,6.0,-999.0,51,-99.99,,,0.00,weatherlink.com 1.10,2014-01-19 19:25:00,
2014-01-19 14:40:00,39.1,22.0,29.73,SSW,213,2.0,-999.0,50,-99.99,,,0.00,weatherlink.com 1.10,2014-01-19 19:40:00,
2014-01-19 14:55:00,39.3,22.0,29.73,SSW,193,1.0,-999.0,50,-99.99,,,0.00,weatherlink.com 1.10,2014-01-19 19:55:00,
2014-01-19 14:57:00,39.2,22.6,29.73,WNW,294,0.0,0.0,51,0.00,,,0.00,Cumulus v1.9.1,2014-01-19 19:57:00,
2014-01-19 15:00:00,39.2,22.6,29.74,SW,219,2.0,10.0,51,0.00,,,0.00,Cumulus v1.9.1,2014-01-19 20:00:00,
2014-01-19 15:02:00,39.2,22.6,29.74,SW,234,0.0,10.0,51,0.00,,,0.00,Cumulus v1.9.1,2014-01-19 20:02:00,
2014-01-19 15:03:00,39.2,22.6,29.74,SW,234,0.0,10.0,51,0.00,,,0.00,Cumulus v1.9.1,2014-01-19 20:03:00,
2014-01-19 15:06:00,39.2,23.0,29.74,WSW,247,7.0,10.0,52,0.00,,,0.00,Cumulus v1.9.1,2014-01-19 20:06:00,
2014-01-19 15:07:00,39.2,22.6,29.74,WNW,289,1.0,10.0,51,0.00,,,0.00,Cumulus v1.9.1,2014-01-19 20:07:00,
2014-01-19 15:08:00,39.2,22.6,29.74,West,277,0.0,10.0,51,0.00,,,0.00,Cumulus v1.9.1,2014-01-19 20:08:00,
2014-01-19 15:12:00,39.3,22.7,29.74,West,280,3.0,12.0,51,0.00,,,0.00,Cumulus v1.9.1,2014-01-19 20:12:00,
2014-01-19 15:13:00,39.3,22.7,29.74,SW,233,0.0,12.0,51,0.00,,,0.00,Cumulus v1.9.1,2014-01-19 20:13:00,
2014-01-19 15:14:00,39.3,22.7,29.74,NW,326,1.0,12.0,51,0.00,,,0.00,Cumulus v1.9.1,2014-01-19 20:14:00,
2014-01-19 15:17:00,39.5,22.8,29.74,SSW,210,1.0,12.0,51,0.00,,,0.00,Cumulus v1.9.1,2014-01-19 20:17:00,
2014-01-19 15:18:00,39.5,22.8,29.74,NW,318,1.0,12.0,51,0.00,,,0.00,Cumulus v1.9.1,2014-01-19 20:18:00,
2014-01-19 15:19:00,39.5,22.8,29.74,West,261,0.0,12.0,51,0.00,,,0.00,Cumulus v1.9.1,2014-01-19 20:19:00,
2014-01-19 15:22:00,39.6,22.5,29.74,WSW,239,1.0,11.0,50,0.00,,,0.00,Cumulus v1.9.1,2014-01-19 20:22:00,
2014-01-19 15:23:00,39.6,22.5,29.74,WSW,240,0.0,11.0,50,0.00,,,0.00,Cumulus v1.9.1,2014-01-19 20:23:00,
2014-01-19 15:24:00,39.6,22.5,29.74,WSW,240,1.0,11.0,50,0.00,,,0.00,Cumulus v1.9.1,2014-01-19 20:24:00,
2014-01-19 15:26:00,39.6,22.5,29.74,SW,223,2.0,10.0,50,0.00,,,0.00,Cumulus v1.9.1,2014-01-19 20:26:00,
2014-01-19 15:27:00,39.8,22.7,29.74,WSW,244,1.0,10.0,50,0.00,,,0.00,Cumulus v1.9.1,2014-01-19 20:27:00,
2014-01-19 15:28:00,39.8,22.7,29.74,WSW,244,0.0,10.0,50,0.00,,,0.00,Cumulus v1.9.1,2014-01-19 20:28:00,
2014-01-19 15:29:00,39.8,22.7,29.74,WSW,254,3.0,10.0,50,0.00,,,0.00,Cumulus v1.9.1,2014-01-19 20:29:00,
2014-01-19 15:30:00,39.8,22.7,29.73,SW,215,7.0,12.0,50,0.00,,,0.00,Cumulus v1.9.1,2014-01-19 20:30:00,
2014-01-19 15:32:00,39.8,22.2,29.73,SSW,200,4.0,12.0,49,0.00,,,0.00,Cumulus v1.9.1,2014-01-19 20:32:00,
2014-01-19 15:33:00,39.8,22.2,29.73,NNW,347,2.0,12.0,49,0.00,,,0.00,Cumulus v1.9.1,2014-01-19 20:33:00,
2014-01-19 15:34:00,39.8,22.2,29.73,SSW,200,0.0,12.0,49,0.00,,,0.00,Cumulus v1.9.1,2014-01-19 20:34:00,
2014-01-19 15:35:00,39.9,22.3,29.73,SW,223,1.0,12.0,49,0.00,,,0.00,Cumulus v1.9.1,2014-01-19 20:35:00,
2014-01-19 15:37:00,39.9,22.3,29.73,SSW,200,0.0,12.0,49,0.00,,,0.00,Cumulus v1.9.1,2014-01-19 20:37:00,
2014-01-19 15:38:00,39.9,22.3,29.73,SW,215,3.0,12.0,49,0.00,,,0.00,Cumulus v1.9.1,2014-01-19 20:38:00,
2014-01-19 15:39:00,39.9,22.3,29.73,SW,222,0.0,12.0,49,0.00,,,0.00,Cumulus v1.9.1,2014-01-19 20:39:00,
2014-01-19 15:40:00,39.9,22.3,29.73,WNW,291,1.0,7.0,49,0.00,,,0.00,Cumulus v1.9.1,2014-01-19 20:40:00,
2014-01-19 15:42:00,40.1,22.4,29.73,South,184,8.0,11.0,49,0.00,,,0.00,Cumulus v1.9.1,2014-01-19 20:42:00,
2014-01-19 15:43:00,40.1,22.4,29.73,WNW,291,6.0,11.0,49,0.00,,,0.00,Cumulus v1.9.1,2014-01-19 20:43:00,
2014-01-19 15:44:00,40.1,22.4,29.73,WSW,244,6.0,11.0,49,0.00,,,0.00,Cumulus v1.9.1,2014-01-19 20:44:00,
2014-01-19 15:45:00,39.9,22.3,29.74,West,265,4.0,11.0,49,0.00,,,0.00,Cumulus v1.9.1,2014-01-19 20:45:00,
2014-01-19 15:48:00,39.9,22.3,29.74,SSE,151,1.0,11.0,49,0.00,,,0.00,Cumulus v1.9.1,2014-01-19 20:48:00,
2014-01-19 15:49:00,39.9,22.3,29.74,SW,230,3.0,11.0,49,0.00,,,0.00,Cumulus v1.9.1,2014-01-19 20:49:00,
2014-01-19 15:50:00,39.9,22.3,29.74,WSW,239,3.0,11.0,49,0.00,,,0.00,Cumulus v1.9.1,2014-01-19 20:50:00,
2014-01-19 15:52:00,39.8,22.2,29.74,SSW,210,1.0,11.0,49,0.00,,,0.00,Cumulus v1.9.1,2014-01-19 20:52:00,
2014-01-19 15:53:00,39.8,22.2,29.74,WSW,250,7.0,11.0,49,0.00,,,0.00,Cumulus v1.9.1,2014-01-19 20:53:00,
2014-01-19 15:54:00,39.8,22.2,29.74,WSW,241,1.0,10.0,49,0.00,,,0.00,Cumulus v1.9.1,2014-01-19 20:54:00,
2014-01-19 15:55:00,39.8,22.2,29.74,West,275,1.0,8.0,49,0.00,,,0.00,Cumulus v1.9.1,2014-01-19 20:55:00,
2014-01-19 15:57:00,39.8,22.2,29.74,SW,220,0.0,8.0,49,0.00,,,0.00,Cumulus v1.9.1,2014-01-19 20:57:00,
2014-01-19 15:59:00,39.8,22.7,29.73,NNE,27,0.0,8.0,50,0.00,,,0.00,Cumulus v1.9.1,2014-01-19 20:59:00,
2014-01-19 16:00:00,39.8,22.7,29.73,SSE,147,9.0,10.0,50,0.00,,,0.00,Cumulus v1.9.1,2014-01-19 21:00:00,
2014-01-19 16:01:00,39.6,22.5,29.73,SW,219,5.0,10.0,50,0.00,,,0.00,Cumulus v1.9.1,2014-01-19 21:01:00,
2014-01-19 16:02:00,39.6,22.5,29.73,North,354,4.0,11.0,50,0.00,,,0.00,Cumulus v1.9.1,2014-01-19 21:02:00,
2014-01-19 16:04:00,39.6,22.0,29.73,WNW,288,3.0,12.0,49,0.00,,,0.00,Cumulus v1.9.1,2014-01-19 21:04:00,
2014-01-19 16:05:00,39.6,22.0,29.73,WSW,246,3.0,12.0,49,0.00,,,0.00,Cumulus v1.9.1,2014-01-19 21:05:00,
2014-01-19 16:06:00,39.6,22.0,29.73,NW,305,3.0,12.0,49,0.00,,,0.00,Cumulus v1.9.1,2014-01-19 21:06:00,
2014-01-19 16:10:00,39.6,22.0,29.73,NW,312,3.0,12.0,49,0.00,,,0.00,Cumulus v1.9.1,2014-01-19 21:10:00,
2014-01-19 16:11:00,39.6,22.0,29.73,WNW,298,3.0,12.0,49,0.00,,,0.00,Cumulus v1.9.1,2014-01-19 21:11:00,
2014-01-19 16:12:00,39.6,22.0,29.73,WNW,284,0.0,12.0,49,0.00,,,0.00,Cumulus v1.9.1,2014-01-19 21:12:00,
2014-01-19 16:15:00,39.6,22.0,29.74,SW,219,5.0,8.0,49,0.00,,,0.00,Cumulus v1.9.1,2014-01-19 21:15:00,
2014-01-19 16:16:00,39.6,22.0,29.74,SW,236,2.0,8.0,49,0.00,,,0.00,Cumulus v1.9.1,2014-01-19 21:16:00,
2014-01-19 16:17:00,39.6,21.5,29.74,NW,313,3.0,8.0,48,0.00,,,0.00,Cumulus v1.9.1,2014-01-19 21:17:00,
2014-01-19 16:21:00,39.6,21.5,29.74,SW,229,2.0,8.0,48,0.00,,,0.00,Cumulus v1.9.1,2014-01-19 21:21:00,
2014-01-19 16:22:00,39.6,21.5,29.74,WSW,257,2.0,8.0,48,0.00,,,0.00,Cumulus v1.9.1,2014-01-19 21:22:00,
2014-01-19 16:23:00,39.5,21.9,29.74,South,171,1.0,7.0,49,0.00,,,0.00,Cumulus v1.9.1,2014-01-19 21:23:00,
2014-01-19 16:26:00,39.5,21.9,29.74,West,260,5.0,13.0,49,0.00,,,0.00,Cumulus v1.9.1,2014-01-19 21:26:00,
2014-01-19 16:27:00,39.5,21.9,29.74,WSW,237,0.0,13.0,49,0.00,,,0.00,Cumulus v1.9.1,2014-01-19 21:27:00,
2014-01-19 16:29:00,39.5,21.9,29.74,NNW,329,7.0,13.0,49,0.00,,,0.00,Cumulus v1.9.1,2014-01-19 21:29:00,
2014-01-19 16:31:00,39.3,21.7,29.74,SSW,206,0.0,13.0,49,0.00,,,0.00,Cumulus v1.9.1,2014-01-19 21:31:00,
2014-01-19 16:32:00,39.3,21.7,29.74,WSW,241,1.0,13.0,49,0.00,,,0.00,Cumulus v1.9.1,2014-01-19 21:32:00,
2014-01-19 16:33:00,39.3,21.7,29.74,NW,318,2.0,13.0,49,0.00,,,0.00,Cumulus v1.9.1,2014-01-19 21:33:00,
2014-01-19 16:34:00,39.3,21.7,29.74,SW,223,6.0,13.0,49,0.00,,,0.00,Cumulus v1.9.1,2014-01-19 21:34:00,
2014-01-19 16:36:00,39.3,21.7,29.74,WSW,244,0.0,13.0,49,0.00,,,0.00,Cumulus v1.9.1,2014-01-19 21:36:00,
2014-01-19 16:37:00,39.3,21.7,29.74,SW,223,2.0,13.0,49,0.00,,,0.00,Cumulus v1.9.1,2014-01-19 21:37:00,
2014-01-19 16:38:00,39.2,21.6,29.74,SSW,192,0.0,13.0,49,0.00,,,0.00,Cumulus v1.9.1,2014-01-19 21:38:00,
2014-01-19 16:40:00,39.2,22.1,29.74,WSW,256,3.0,6.0,50,0.00,,,0.00,Cumulus v1.9.1,2014-01-19 21:40:00,
2014-01-19 16:42:00,39.2,22.1,29.74,North,353,5.0,8.0,50,0.00,,,0.00,Cumulus v1.9.1,2014-01-19 21:42:00,
2014-01-19 16:43:00,39.1,22.0,29.74,WSW,256,1.0,8.0,50,0.00,,,0.00,Cumulus v1.9.1,2014-01-19 21:43:00,
2014-01-19 16:44:00,39.1,22.0,29.74,WSW,246,1.0,8.0,50,0.00,,,0.00,Cumulus v1.9.1,2014-01-19 21:44:00,
2014-01-19 16:45:00,39.1,22.0,29.74,WSW,244,0.0,8.0,50,0.00,,,0.00,Cumulus v1.9.1,2014-01-19 21:45:00,
2014-01-19 16:47:00,38.9,21.8,29.74,SW,236,0.0,8.0,50,0.00,,,0.00,Cumulus v1.9.1,2014-01-19 21:47:00,
2014-01-19 16:48:00,38.9,21.8,29.74,WSW,237,1.0,8.0,50,0.00,,,0.00,Cumulus v1.9.1,2014-01-19 21:48:00,
2014-01-19 16:49:00,38.9,22.3,29.74,SSW,213,0.0,8.0,51,0.00,,,0.00,Cumulus v1.9.1,2014-01-19 21:49:00,
2014-01-19 16:50:00,38.9,22.3,29.74,SSW,213,1.0,8.0,51,0.00,,,0.00,Cumulus v1.9.1,2014-01-19 21:50:00,
2014-01-19 16:52:00,38.8,22.2,29.74,SW,234,0.0,7.0,51,0.00,,,0.00,Cumulus v1.9.1,2014-01-19 21:52:00,
2014-01-19 16:53:00,38.8,22.2,29.74,West,263,5.0,7.0,51,0.00,,,0.00,Cumulus v1.9.1,2014-01-19 21:53:00,
2014-01-19 16:54:00,38.8,22.2,29.74,WSW,253,1.0,7.0,51,0.00,,,0.00,Cumulus v1.9.1,2014-01-19 21:54:00,
2014-01-19 16:56:00,38.8,22.2,29.74,SW,224,1.0,5.0,51,0.00,,,0.00,Cumulus v1.9.1,2014-01-19 21:56:00,
2014-01-19 16:58:00,38.6,22.0,29.74,NNW,340,0.0,5.0,51,0.00,,,0.00,Cumulus v1.9.1,2014-01-19 21:58:00,
2014-01-19 16:59:00,38.6,22.0,29.74,SW,229,0.0,5.0,51,0.00,,,0.00,Cumulus v1.9.1,2014-01-19 21:59:00,
2014-01-19 17:00:00,38.6,21.5,29.74,West,261,4.0,5.0,50,0.00,,,0.00,Cumulus v1.9.1,2014-01-19 22:00:00,
2014-01-19 17:01:00,38.5,21.9,29.74,SSW,198,2.0,5.0,51,0.00,,,0.00,Cumulus v1.9.1,2014-01-19 22:01:00,
2014-01-19 17:02:00,38.5,21.9,29.74,SSW,205,2.0,5.0,51,0.00,,,0.00,Cumulus v1.9.1,2014-01-19 22:02:00,
2014-01-19 17:04:00,38.5,21.9,29.74,SSW,203,1.0,6.0,51,0.00,,,0.00,Cumulus v1.9.1,2014-01-19 22:04:00,
2014-01-19 17:05:00,38.3,21.7,29.74,WSW,240,1.0,6.0,51,0.00,,,0.00,Cumulus v1.9.1,2014-01-19 22:05:00,
2014-01-19 17:06:00,38.3,21.7,29.74,SSW,202,1.0,6.0,51,0.00,,,0.00,Cumulus v1.9.1,2014-01-19 22:06:00,
2014-01-19 17:07:00,38.3,21.7,29.74,SSW,205,1.0,6.0,51,0.00,,,0.00,Cumulus v1.9.1,2014-01-19 22:07:00,
2014-01-19 17:09:00,38.3,21.7,29.74,SW,223,4.0,6.0,51,0.00,,,0.00,Cumulus v1.9.1,2014-01-19 22:09:00,
2014-01-19 17:10:00,38.3,21.7,29.74,SW,215,0.0,6.0,51,0.00,,,0.00,Cumulus v1.9.1,2014-01-19 22:10:00,
2014-01-19 17:12:00,38.3,21.7,29.74,SW,217,1.0,6.0,51,0.00,,,0.00,Cumulus v1.9.1,2014-01-19 22:12:00,
2014-01-19 17:13:00,38.3,21.7,29.74,SW,217,1.0,6.0,51,0.00,,,0.00,Cumulus v1.9.1,2014-01-19 22:13:00,
2014-01-19 17:14:00,38.2,21.6,29.74,SW,220,0.0,6.0,51,0.00,,,0.00,Cumulus v1.9.1,2014-01-19 22:14:00,
2014-01-19 17:15:00,38.2,21.6,29.74,West,277,0.0,6.0,51,0.00,,,0.00,Cumulus v1.9.1,2014-01-19 22:15:00,
2014-01-19 17:16:00,38.2,21.6,29.74,SSW,195,2.0,6.0,51,0.00,,,0.00,Cumulus v1.9.1,2014-01-19 22:16:00,
2014-01-19 17:18:00,38.2,21.6,29.74,SW,215,1.0,6.0,51,0.00,,,0.00,Cumulus v1.9.1,2014-01-19 22:18:00,
2014-01-19 17:19:00,38.2,21.6,29.74,SSW,209,1.0,3.0,51,0.00,,,0.00,Cumulus v1.9.1,2014-01-19 22:19:00,
2014-01-19 17:20:00,38.2,21.6,29.74,SSW,209,1.0,3.0,51,0.00,,,0.00,Cumulus v1.9.1,2014-01-19 22:20:00,
2014-01-19 17:21:00,38.0,21.5,29.74,WNW,284,1.0,6.0,51,0.00,,,0.00,Cumulus v1.9.1,2014-01-19 22:21:00,
2014-01-19 17:23:00,38.0,21.5,29.74,SSW,192,0.0,6.0,51,0.00,,,0.00,Cumulus v1.9.1,2014-01-19 22:23:00,
2014-01-19 17:25:00,38.0,21.9,29.74,WSW,247,2.0,6.0,52,0.00,,,0.00,Cumulus v1.9.1,2014-01-19 22:25:00,
2014-01-19 17:26:00,38.0,21.9,29.74,SW,217,1.0,6.0,52,0.00,,,0.00,Cumulus v1.9.1,2014-01-19 22:26:00,
2014-01-19 17:27:00,37.9,21.8,29.74,SW,215,0.0,6.0,52,0.00,,,0.00,Cumulus v1.9.1,2014-01-19 22:27:00,
2014-01-19 17:29:00,37.9,21.8,29.74,SSW,212,2.0,7.0,52,0.00,,,0.00,Cumulus v1.9.1,2014-01-19 22:29:00,
2014-01-19 17:30:00,37.9,21.8,29.74,WNW,292,4.0,7.0,52,0.00,,,0.00,Cumulus v1.9.1,2014-01-19 22:30:00,
2014-01-19 17:31:00,37.9,21.8,29.74,WNW,292,0.0,7.0,52,0.00,,,0.00,Cumulus v1.9.1,2014-01-19 22:31:00,
2014-01-19 17:32:00,37.9,21.8,29.74,WNW,292,0.0,7.0,52,0.00,,,0.00,Cumulus v1.9.1,2014-01-19 22:32:00,
2014-01-19 17:34:00,37.8,21.7,29.74,SW,215,0.0,7.0,52,0.00,,,0.00,Cumulus v1.9.1,2014-01-19 22:34:00,
2014-01-19 17:35:00,37.8,21.7,29.74,SW,215,0.0,7.0,52,0.00,,,0.00,Cumulus v1.9.1,2014-01-19 22:35:00,
2014-01-19 17:36:00,37.8,21.7,29.74,SW,215,0.0,7.0,52,0.00,,,0.00,Cumulus v1.9.1,2014-01-19 22:36:00,
2014-01-19 17:38:00,37.8,21.7,29.74,SSW,213,0.0,5.0,52,0.00,,,0.00,Cumulus v1.9.1,2014-01-19 22:38:00,
2014-01-19 17:39:00,37.6,21.5,29.74,SSW,213,0.0,4.0,52,0.00,,,0.00,Cumulus v1.9.1,2014-01-19 22:39:00,
2014-01-19 17:40:00,37.6,21.5,29.74,SSW,213,0.0,3.0,52,0.00,,,0.00,Cumulus v1.9.1,2014-01-19 22:40:00,
2014-01-19 17:41:00,37.6,21.5,29.74,SSW,213,0.0,3.0,52,0.00,,,0.00,Cumulus v1.9.1,2014-01-19 22:41:00,
2014-01-19 17:43:00,37.6,22.0,29.74,SSW,213,2.0,3.0,53,0.00,,,0.00,Cumulus v1.9.1,2014-01-19 22:43:00,
2014-01-19 17:45:00,37.5,21.9,29.74,SSW,210,0.0,3.0,53,0.00,,,0.00,Cumulus v1.9.1,2014-01-19 22:45:00,
2014-01-19 17:46:00,37.5,21.9,29.74,SSW,210,0.0,3.0,53,0.00,,,0.00,Cumulus v1.9.1,2014-01-19 22:46:00,
2014-01-19 17:47:00,37.5,21.9,29.74,SSW,210,0.0,3.0,53,0.00,,,0.00,Cumulus v1.9.1,2014-01-19 22:47:00,
2014-01-19 17:48:00,37.5,21.9,29.74,SSW,210,0.0,3.0,53,0.00,,,0.00,Cumulus v1.9.1,2014-01-19 22:48:00,
2014-01-19 17:50:00,37.3,21.7,29.74,SSW,212,1.0,3.0,53,0.00,,,0.00,Cumulus v1.9.1,2014-01-19 22:50:00,
2014-01-19 17:51:00,37.3,21.7,29.74,SSW,212,0.0,3.0,53,0.00,,,0.00,Cumulus v1.9.1,2014-01-19 22:51:00,
2014-01-19 17:52:00,37.3,21.7,29.74,SSW,212,0.0,3.0,53,0.00,,,0.00,Cumulus v1.9.1,2014-01-19 22:52:00,
2014-01-19 17:54:00,37.3,22.2,29.74,SSW,212,0.0,3.0,54,0.00,,,0.00,Cumulus v1.9.1,2014-01-19 22:54:00,
2014-01-19 17:55:00,37.2,22.1,29.74,SSW,212,0.0,3.0,54,0.00,,,0.00,Cumulus v1.9.1,2014-01-19 22:55:00,
2014-01-19 17:56:00,37.2,22.1,29.74,SSW,212,1.0,3.0,54,0.00,,,0.00,Cumulus v1.9.1,2014-01-19 22:56:00,
2014-01-19 17:57:00,37.2,22.1,29.74,SSW,212,0.0,3.0,54,0.00,,,0.00,Cumulus v1.9.1,2014-01-19 22:57:00,
2014-01-19 17:59:00,37.2,22.1,29.74,SW,217,1.0,5.0,54,0.00,,,0.00,Cumulus v1.9.1,2014-01-19 22:59:00,
2014-01-19 18:01:00,37.0,21.9,29.74,SW,217,0.0,5.0,54,0.00,,,0.00,Cumulus v1.9.1,2014-01-19 23:01:00,
2014-01-19 18:02:00,37.0,21.9,29.74,SW,217,0.0,5.0,54,0.00,,,0.00,Cumulus v1.9.1,2014-01-19 23:02:00,
2014-01-19 18:03:00,37.0,21.9,29.74,SW,217,0.0,5.0,54,0.00,,,0.00,Cumulus v1.9.1,2014-01-19 23:03:00,
2014-01-19 18:06:00,36.9,21.8,29.74,SW,217,0.0,5.0,54,0.00,,,0.00,Cumulus v1.9.1,2014-01-19 23:06:00,
2014-01-19 18:07:00,36.9,21.8,29.74,SW,217,0.0,5.0,54,0.00,,,0.00,Cumulus v1.9.1,2014-01-19 23:07:00,
2014-01-19 18:08:00,36.9,21.8,29.74,SW,217,0.0,2.0,54,0.00,,,0.00,Cumulus v1.9.1,2014-01-19 23:08:00,
2014-01-19 18:09:00,36.9,21.8,29.74,SW,217,0.0,2.0,54,0.00,,,0.00,Cumulus v1.9.1,2014-01-19 23:09:00,
2014-01-19 18:11:00,36.9,21.8,29.74,SW,217,0.0,1.0,54,0.00,,,0.00,Cumulus v1.9.1,2014-01-19 23:11:00,
2014-01-19 18:12:00,36.9,21.8,29.74,SW,217,0.0,1.0,54,0.00,,,0.00,Cumulus v1.9.1,2014-01-19 23:12:00,
2014-01-19 18:13:00,36.9,21.8,29.74,SW,217,0.0,1.0,54,0.00,,,0.00,Cumulus v1.9.1,2014-01-19 23:13:00,
2014-01-19 18:14:00,36.9,21.8,29.74,SW,217,0.0,0.0,54,0.00,,,0.00,Cumulus v1.9.1,2014-01-19 23:14:00,
2014-01-19 18:16:00,36.9,21.8,29.74,SW,217,0.0,0.0,54,0.00,,,0.00,Cumulus v1.9.1,2014-01-19 23:16:00,
2014-01-19 18:17:00,36.9,21.8,29.74,SW,217,0.0,0.0,54,0.00,,,0.00,Cumulus v1.9.1,2014-01-19 23:17:00,
2014-01-19 18:18:00,36.9,21.8,29.74,SW,217,0.0,0.0,54,0.00,,,0.00,Cumulus v1.9.1,2014-01-19 23:18:00,
2014-01-19 18:19:00,36.9,21.8,29.74,SW,217,0.0,0.0,54,0.00,,,0.00,Cumulus v1.9.1,2014-01-19 23:19:00,
2014-01-19 18:21:00,36.9,21.8,29.74,SW,217,0.0,0.0,54,0.00,,,0.00,Cumulus v1.9.1,2014-01-19 23:21:00,
2014-01-19 18:23:00,36.5,21.4,29.74,SW,217,0.0,0.0,54,0.00,,,0.00,Cumulus v1.9.1,2014-01-19 23:23:00,
2014-01-19 18:24:00,36.5,21.4,29.74,SW,217,0.0,0.0,54,0.00,,,0.00,Cumulus v1.9.1,2014-01-19 23:24:00,
2014-01-19 18:25:00,36.5,21.4,29.74,SW,217,0.0,0.0,54,0.00,,,0.00,Cumulus v1.9.1,2014-01-19 23:25:00,
2014-01-19 18:27:00,36.2,21.1,29.74,SW,217,0.0,0.0,54,0.00,,,0.00,Cumulus v1.9.1,2014-01-19 23:27:00,
2014-01-19 18:28:00,36.2,21.1,29.74,SW,217,0.0,0.0,54,0.00,,,0.00,Cumulus v1.9.1,2014-01-19 23:28:00,
2014-01-19 18:29:00,36.2,21.1,29.74,SW,217,0.0,1.0,54,0.00,,,0.00,Cumulus v1.9.1,2014-01-19 23:29:00,
2014-01-19 18:30:00,36.2,21.1,29.74,SW,217,0.0,1.0,54,0.00,,,0.00,Cumulus v1.9.1,2014-01-19 23:30:00,
2014-01-19 18:32:00,36.0,20.9,29.74,SW,217,0.0,1.0,54,0.00,,,0.00,Cumulus v1.9.1,2014-01-19 23:32:00,
2014-01-19 18:34:00,36.0,21.8,29.74,SW,217,0.0,1.0,56,0.00,,,0.00,Cumulus v1.9.1,2014-01-19 23:34:00,
2014-01-19 18:35:00,36.0,21.8,29.74,SW,217,0.0,1.0,56,0.00,,,0.00,Cumulus v1.9.1,2014-01-19 23:35:00,
2014-01-19 18:37:00,35.9,21.7,29.74,SW,217,0.0,1.0,56,0.00,,,0.00,Cumulus v1.9.1,2014-01-19 23:37:00,
2014-01-19 18:39:00,35.9,21.7,29.74,SW,217,0.0,1.0,56,0.00,,,0.00,Cumulus v1.9.1,2014-01-19 23:39:00,
2014-01-19 18:40:00,35.9,21.7,29.74,SW,217,0.0,1.0,56,0.00,,,0.00,Cumulus v1.9.1,2014-01-19 23:40:00,
2014-01-19 18:42:00,35.9,21.7,29.74,SW,217,0.0,1.0,56,0.00,,,0.00,Cumulus v1.9.1,2014-01-19 23:42:00,
2014-01-19 18:44:00,35.8,21.6,29.74,SW,217,0.0,1.0,56,0.00,,,0.00,Cumulus v1.9.1,2014-01-19 23:44:00,
2014-01-19 18:46:00,35.8,21.6,29.74,SW,217,0.0,1.0,56,0.00,,,0.00,Cumulus v1.9.1,2014-01-19 23:46:00,
2014-01-19 18:47:00,35.6,21.9,29.74,SW,217,0.0,1.0,57,0.00,,,0.00,Cumulus v1.9.1,2014-01-19 23:47:00,
2014-01-19 18:48:00,35.6,21.9,29.74,SW,217,0.0,1.0,57,0.00,,,0.00,Cumulus v1.9.1,2014-01-19 23:48:00,
2014-01-19 18:49:00,35.6,21.9,29.74,SW,217,0.0,2.0,57,0.00,,,0.00,Cumulus v1.9.1,2014-01-19 23:49:00,
2014-01-19 18:50:00,35.6,21.9,29.74,SW,217,0.0,2.0,57,0.00,,,0.00,Cumulus v1.9.1,2014-01-19 23:50:00,
2014-01-19 18:52:00,35.5,21.8,29.74,SW,217,0.0,5.0,57,0.00,,,0.00,Cumulus v1.9.1,2014-01-19 23:52:00,
2014-01-19 18:53:00,35.5,21.8,29.74,SW,217,0.0,5.0,57,0.00,,,0.00,Cumulus v1.9.1,2014-01-19 23:53:00,
2014-01-19 18:54:00,35.5,21.8,29.74,SW,217,0.0,5.0,57,0.00,,,0.00,Cumulus v1.9.1,2014-01-19 23:54:00,
2014-01-19 18:55:00,35.5,21.8,29.74,SW,217,3.0,5.0,57,0.00,,,0.00,Cumulus v1.9.1,2014-01-19 23:55:00,
2014-01-19 18:58:00,35.5,21.8,29.74,SW,217,0.0,5.0,57,0.00,,,0.00,Cumulus v1.9.1,2014-01-19 23:58:00,
2014-01-19 19:00:00,35.5,21.8,29.74,SW,217,0.0,5.0,57,0.00,,,0.00,Cumulus v1.9.1,2014-01-20 00:00:00,
2014-01-19 19:01:00,35.3,21.6,29.74,SW,217,0.0,5.0,57,0.00,,,0.00,Cumulus v1.9.1,2014-01-20 00:01:00,
2014-01-19 19:03:00,35.3,21.6,29.74,SW,217,0.0,3.0,57,0.00,,,0.00,Cumulus v1.9.1,2014-01-20 00:03:00,
2014-01-19 19:06:00,35.3,21.6,29.74,SW,217,0.0,2.0,57,0.00,,,0.00,Cumulus v1.9.1,2014-01-20 00:06:00,
2014-01-19 19:08:00,35.3,21.6,29.74,SW,217,0.0,1.0,57,0.00,,,0.00,Cumulus v1.9.1,2014-01-20 00:08:00,
2014-01-19 19:09:00,35.3,21.6,29.74,SW,217,0.0,1.0,57,0.00,,,0.00,Cumulus v1.9.1,2014-01-20 00:09:00,
2014-01-19 19:11:00,35.2,21.5,29.74,SW,217,0.0,1.0,57,0.00,,,0.00,Cumulus v1.9.1,2014-01-20 00:11:00,
2014-01-19 19:12:00,35.2,21.5,29.74,SW,217,0.0,1.0,57,0.00,,,0.00,Cumulus v1.9.1,2014-01-20 00:12:00,
2014-01-19 19:13:00,35.2,21.9,29.74,SW,217,0.0,1.0,58,0.00,,,0.00,Cumulus v1.9.1,2014-01-20 00:13:00,
2014-01-19 19:14:00,35.2,21.9,29.73,SW,217,2.0,2.0,58,0.00,,,0.00,Cumulus v1.9.1,2014-01-20 00:14:00,
2014-01-19 19:16:00,35.2,21.9,29.73,SW,217,0.0,6.0,58,0.00,,,0.00,Cumulus v1.9.1,2014-01-20 00:16:00,
2014-01-19 19:18:00,35.2,21.9,29.73,SW,217,0.0,6.0,58,0.00,,,0.00,Cumulus v1.9.1,2014-01-20 00:18:00,
2014-01-19 19:19:00,35.2,21.9,29.73,SW,217,0.0,6.0,58,0.00,,,0.00,Cumulus v1.9.1,2014-01-20 00:19:00,
2014-01-19 19:20:00,35.2,21.9,29.73,SW,217,0.0,6.0,58,0.00,,,0.00,Cumulus v1.9.1,2014-01-20 00:20:00,
2014-01-19 19:22:00,35.2,21.9,29.73,SW,217,0.0,6.0,58,0.00,,,0.00,Cumulus v1.9.1,2014-01-20 00:22:00,
2014-01-19 19:23:00,35.2,21.9,29.73,SW,217,0.0,6.0,58,0.00,,,0.00,Cumulus v1.9.1,2014-01-20 00:23:00,
2014-01-19 19:24:00,35.2,21.9,29.73,SW,217,0.0,6.0,58,0.00,,,0.00,Cumulus v1.9.1,2014-01-20 00:24:00,
2014-01-19 19:25:00,35.2,21.9,29.73,SW,217,3.0,3.0,58,0.00,,,0.00,Cumulus v1.9.1,2014-01-20 00:25:00,
2014-01-19 19:28:00,35.2,21.9,29.73,SW,217,0.0,3.0,58,0.00,,,0.00,Cumulus v1.9.1,2014-01-20 00:28:00,
2014-01-19 19:29:00,35.2,21.9,29.73,SW,217,0.0,3.0,58,0.00,,,0.00,Cumulus v1.9.1,2014-01-20 00:29:00,
2014-01-19 19:30:00,35.2,21.9,29.73,SW,217,0.0,3.0,58,0.00,,,0.00,Cumulus v1.9.1,2014-01-20 00:30:00,
2014-01-19 19:31:00,35.2,22.0,29.73,SW,217,0.0,-999.0,58,-99.99,,,0.00,weatherlink.com 1.10,2014-01-20 00:31:00,
2014-01-19 19:34:00,35.3,22.0,29.73,SW,217,0.0,3.0,58,0.00,,,0.00,Cumulus v1.9.1,2014-01-20 00:34:00,
2014-01-19 19:35:00,35.3,22.0,29.73,SW,217,0.0,3.0,58,0.00,,,0.00,Cumulus v1.9.1,2014-01-20 00:35:00,
2014-01-19 19:36:00,35.3,22.0,29.73,SW,217,1.0,3.0,58,0.00,,,0.00,Cumulus v1.9.1,2014-01-20 00:36:00,
2014-01-19 19:37:00,35.3,22.0,29.73,SW,217,0.0,3.0,58,0.00,,,0.00,Cumulus v1.9.1,2014-01-20 00:37:00,
2014-01-19 19:39:00,35.5,22.2,29.73,SW,219,1.0,3.0,58,0.00,,,0.00,Cumulus v1.9.1,2014-01-20 00:39:00,
2014-01-19 19:40:00,35.5,22.2,29.73,SW,219,0.0,3.0,58,0.00,,,0.00,Cumulus v1.9.1,2014-01-20 00:40:00,
2014-01-19 19:42:00,35.6,22.3,29.73,SW,219,0.0,3.0,58,0.00,,,0.00,Cumulus v1.9.1,2014-01-20 00:42:00,
2014-01-19 19:44:00,35.6,21.9,29.74,SW,219,0.0,3.0,57,0.00,,,0.00,Cumulus v1.9.1,2014-01-20 00:44:00,
2014-01-19 19:45:00,35.6,21.9,29.74,SW,219,0.0,3.0,57,0.00,,,0.00,Cumulus v1.9.1,2014-01-20 00:45:00,
2014-01-19 19:47:00,35.8,22.0,29.74,SW,219,0.0,3.0,57,0.00,,,0.00,Cumulus v1.9.1,2014-01-20 00:47:00,
2014-01-19 19:49:00,35.8,22.5,29.74,SW,216,0.0,6.0,58,0.00,,,0.00,Cumulus v1.9.1,2014-01-20 00:49:00,
2014-01-19 19:50:00,35.8,22.5,29.74,SW,216,0.0,6.0,58,0.00,,,0.00,Cumulus v1.9.1,2014-01-20 00:50:00,
2014-01-19 19:51:00,35.8,22.5,29.74,SW,216,0.0,6.0,58,0.00,,,0.00,Cumulus v1.9.1,2014-01-20 00:51:00,
2014-01-19 19:53:00,35.8,22.0,29.74,SW,216,0.0,6.0,57,0.00,,,0.00,Cumulus v1.9.1,2014-01-20 00:53:00,
2014-01-19 19:54:00,35.8,22.0,29.74,SW,216,2.0,6.0,57,0.00,,,0.00,Cumulus v1.9.1,2014-01-20 00:54:00,
2014-01-19 19:55:00,35.8,22.0,29.74,SW,216,0.0,6.0,57,0.00,,,0.00,Cumulus v1.9.1,2014-01-20 00:55:00,
2014-01-19 19:56:00,35.8,22.0,29.74,SW,216,1.0,6.0,57,0.00,,,0.00,Cumulus v1.9.1,2014-01-20 00:56:00,
2014-01-19 19:57:00,35.8,22.0,29.74,SW,216,2.0,6.0,57,0.00,,,0.00,Cumulus v1.9.1,2014-01-20 00:57:00,
2014-01-19 19:58:00,35.8,22.0,29.74,NW,315,0.0,6.0,57,0.00,,,0.00,Cumulus v1.9.1,2014-01-20 00:58:00,
2014-01-19 20:00:00,35.8,22.0,29.74,West,268,0.0,3.0,57,0.00,,,0.00,Cumulus v1.9.1,2014-01-20 01:00:00,
2014-01-19 20:01:00,35.8,22.0,29.74,SW,223,3.0,3.0,57,0.00,,,0.00,Cumulus v1.9.1,2014-01-20 01:01:00,
2014-01-19 20:02:00,35.8,22.0,29.74,South,189,0.0,3.0,57,0.00,,,0.00,Cumulus v1.9.1,2014-01-20 01:02:00,
2014-01-19 20:03:00,35.8,22.0,29.74,WSW,237,2.0,3.0,57,0.00,,,0.00,Cumulus v1.9.1,2014-01-20 01:03:00,
2014-01-19 20:05:00,35.9,22.1,29.74,SSW,192,0.0,3.0,57,0.00,,,0.00,Cumulus v1.9.1,2014-01-20 01:05:00,
2014-01-19 20:06:00,35.9,22.1,29.74,SSW,192,0.0,3.0,57,0.00,,,0.00,Cumulus v1.9.1,2014-01-20 01:06:00,
2014-01-19 20:07:00,35.9,22.1,29.74,SSW,192,1.0,3.0,57,0.00,,,0.00,Cumulus v1.9.1,2014-01-20 01:07:00,
2014-01-19 20:09:00,36.0,22.2,29.74,WSW,254,0.0,3.0,57,0.00,,,0.00,Cumulus v1.9.1,2014-01-20 01:09:00,
2014-01-19 20:10:00,36.0,22.2,29.74,WSW,254,1.0,3.0,57,0.00,,,0.00,Cumulus v1.9.1,2014-01-20 01:10:00,
2014-01-19 20:11:00,36.0,22.2,29.74,WSW,256,1.0,3.0,57,0.00,,,0.00,Cumulus v1.9.1,2014-01-20 01:11:00,
2014-01-19 20:12:00,36.0,22.2,29.74,SW,226,1.0,3.0,57,0.00,,,0.00,Cumulus v1.9.1,2014-01-20 01:12:00,
2014-01-19 20:14:00,36.0,22.2,29.74,West,271,0.0,3.0,57,0.00,,,0.00,Cumulus v1.9.1,2014-01-20 01:14:00,
2014-01-19 20:16:00,36.0,22.2,29.74,West,270,0.0,3.0,57,0.00,,,0.00,Cumulus v1.9.1,2014-01-20 01:16:00,
2014-01-19 20:17:00,36.0,22.2,29.74,West,270,0.0,3.0,57,0.00,,,0.00,Cumulus v1.9.1,2014-01-20 01:17:00,
2014-01-19 20:20:00,36.0,22.6,29.74,SW,217,1.0,2.0,58,0.00,,,0.00,Cumulus v1.9.1,2014-01-20 01:20:00,
2014-01-19 20:21:00,35.9,22.5,29.74,SW,220,0.0,2.0,58,0.00,,,0.00,Cumulus v1.9.1,2014-01-20 01:21:00,
2014-01-19 20:22:00,35.9,22.5,29.74,SW,220,0.0,2.0,58,0.00,,,0.00,Cumulus v1.9.1,2014-01-20 01:22:00,
2014-01-19 20:23:00,35.9,22.5,29.74,SW,215,1.0,2.0,58,0.00,,,0.00,Cumulus v1.9.1,2014-01-20 01:23:00,
2014-01-19 20:25:00,35.9,22.5,29.74,SW,223,0.0,2.0,58,0.00,,,0.00,Cumulus v1.9.1,2014-01-20 01:25:00,
2014-01-19 20:27:00,35.9,22.5,29.74,SW,223,0.0,2.0,58,0.00,,,0.00,Cumulus v1.9.1,2014-01-20 01:27:00,
2014-01-19 20:28:00,35.8,22.5,29.74,SW,223,0.0,2.0,58,0.00,,,0.00,Cumulus v1.9.1,2014-01-20 01:28:00,
2014-01-19 20:29:00,35.8,22.5,29.74,SW,223,1.0,2.0,58,0.00,,,0.00,Cumulus v1.9.1,2014-01-20 01:29:00,
2014-01-19 20:31:00,35.8,22.5,29.74,SW,215,3.0,5.0,58,0.00,,,0.00,Cumulus v1.9.1,2014-01-20 01:31:00,
2014-01-19 20:32:00,35.8,22.5,29.74,SW,215,2.0,5.0,58,0.00,,,0.00,Cumulus v1.9.1,2014-01-20 01:32:00,
2014-01-19 20:33:00,35.8,22.5,29.74,SW,215,1.0,5.0,58,0.00,,,0.00,Cumulus v1.9.1,2014-01-20 01:33:00,
2014-01-19 20:34:00,35.8,22.0,29.74,SW,215,1.0,-999.0,58,-99.99,,,0.00,weatherlink.com 1.10,2014-01-20 01:34:00,
2014-01-19 20:36:00,35.8,22.5,29.74,WSW,241,0.0,5.0,58,0.00,,,0.00,Cumulus v1.9.1,2014-01-20 01:36:00,
2014-01-19 20:37:00,35.8,22.5,29.74,WSW,241,0.0,5.0,58,0.00,,,0.00,Cumulus v1.9.1,2014-01-20 01:37:00,
2014-01-19 20:38:00,35.8,22.5,29.74,WSW,241,0.0,5.0,58,0.00,,,0.00,Cumulus v1.9.1,2014-01-20 01:38:00,
2014-01-19 20:39:00,35.6,22.3,29.74,WSW,241,1.0,5.0,58,0.00,,,0.00,Cumulus v1.9.1,2014-01-20 01:39:00,
2014-01-19 20:41:00,35.6,22.7,29.74,SW,236,0.0,4.0,59,0.00,,,0.00,Cumulus v1.9.1,2014-01-20 01:41:00,
2014-01-19 20:42:00,35.6,22.7,29.74,SW,233,1.0,4.0,59,0.00,,,0.00,Cumulus v1.9.1,2014-01-20 01:42:00,
2014-01-19 20:43:00,35.6,22.7,29.74,WSW,258,1.0,4.0,59,0.00,,,0.00,Cumulus v1.9.1,2014-01-20 01:43:00,
2014-01-19 20:45:00,35.6,22.7,29.74,WSW,258,2.0,3.0,59,0.00,,,0.00,Cumulus v1.9.1,2014-01-20 01:45:00,
2014-01-19 20:46:00,35.6,22.7,29.74,WSW,258,0.0,3.0,59,0.00,,,0.00,Cumulus v1.9.1,2014-01-20 01:46:00,
2014-01-19 20:48:00,35.6,22.7,29.74,WSW,254,0.0,3.0,59,0.00,,,0.00,Cumulus v1.9.1,2014-01-20 01:48:00,
2014-01-19 20:49:00,35.6,22.7,29.74,WSW,247,5.0,7.0,59,0.00,,,0.00,Cumulus v1.9.1,2014-01-20 01:49:00,
2014-01-19 20:50:00,35.5,22.6,29.74,WSW,247,0.0,7.0,59,0.00,,,0.00,Cumulus v1.9.1,2014-01-20 01:50:00,
2014-01-19 20:51:00,35.5,22.6,29.74,SSW,212,1.0,7.0,59,0.00,,,0.00,Cumulus v1.9.1,2014-01-20 01:51:00,
2014-01-19 20:53:00,35.5,22.6,29.74,South,189,1.0,7.0,59,0.00,,,0.00,Cumulus v1.9.1,2014-01-20 01:53:00,
2014-01-19 20:54:00,35.5,22.6,29.74,South,189,0.0,7.0,59,0.00,,,0.00,Cumulus v1.9.1,2014-01-20 01:54:00,
2014-01-19 20:55:00,35.5,22.6,29.74,South,189,0.0,7.0,59,0.00,,,0.00,Cumulus v1.9.1,2014-01-20 01:55:00,
2014-01-19 20:56:00,35.5,22.6,29.74,SSW,199,0.0,7.0,59,0.00,,,0.00,Cumulus v1.9.1,2014-01-20 01:56:00,
2014-01-19 20:57:00,35.5,22.6,29.74,SSW,199,0.0,7.0,59,0.00,,,0.00,Cumulus v1.9.1,2014-01-20 01:57:00,
2014-01-19 20:58:00,35.5,22.6,29.74,WSW,243,1.0,7.0,59,0.00,,,0.00,Cumulus v1.9.1,2014-01-20 01:58:00,
2014-01-19 20:59:00,35.5,22.6,29.74,WSW,243,1.0,2.0,59,0.00,,,0.00,Cumulus v1.9.1,2014-01-20 01:59:00,
2014-01-19 21:00:00,35.5,22.6,29.74,WSW,243,1.0,2.0,59,0.00,,,0.00,Cumulus v1.9.1,2014-01-20 02:00:00,
2014-01-19 21:01:00,35.5,22.6,29.74,WSW,246,1.0,2.0,59,0.00,,,0.00,Cumulus v1.9.1,2014-01-20 02:01:00,
2014-01-19 21:02:00,35.5,22.6,29.74,WSW,246,1.0,2.0,59,0.00,,,0.00,Cumulus v1.9.1,2014-01-20 02:02:00,
2014-01-19 21:04:00,35.6,22.7,29.74,WSW,246,1.0,2.0,59,0.00,,,0.00,Cumulus v1.9.1,2014-01-20 02:04:00,
2014-01-19 21:05:00,35.6,22.7,29.74,WSW,246,1.0,2.0,59,0.00,,,0.00,Cumulus v1.9.1,2014-01-20 02:05:00,
2014-01-19 21:06:00,35.6,23.1,29.74,SSW,210,0.0,1.0,60,0.00,,,0.00,Cumulus v1.9.1,2014-01-20 02:06:00,
2014-01-19 21:08:00,35.6,23.1,29.74,South,189,0.0,1.0,60,0.00,,,0.00,Cumulus v1.9.1,2014-01-20 02:08:00,
2014-01-19 21:09:00,35.6,23.1,29.74,South,189,0.0,1.0,60,0.00,,,0.00,Cumulus v1.9.1,2014-01-20 02:09:00,
2014-01-19 21:10:00,35.6,23.1,29.74,South,189,0.0,1.0,60,0.00,,,0.00,Cumulus v1.9.1,2014-01-20 02:10:00,
2014-01-19 21:11:00,35.6,23.1,29.74,South,189,0.0,1.0,60,0.00,,,0.00,Cumulus v1.9.1,2014-01-20 02:11:00,
2014-01-19 21:13:00,35.6,23.1,29.74,SW,223,0.0,1.0,60,0.00,,,0.00,Cumulus v1.9.1,2014-01-20 02:13:00,
2014-01-19 21:14:00,35.8,23.3,29.74,NNW,337,0.0,0.0,60,0.00,,,0.00,Cumulus v1.9.1,2014-01-20 02:14:00,
2014-01-19 21:15:00,35.8,23.3,29.74,NNW,337,0.0,0.0,60,0.00,,,0.00,Cumulus v1.9.1,2014-01-20 02:15:00,
2014-01-19 21:17:00,35.8,23.3,29.74,NNW,337,0.0,0.0,60,0.00,,,0.00,Cumulus v1.9.1,2014-01-20 02:17:00,
2014-01-19 21:18:00,35.8,23.3,29.74,SW,220,1.0,1.0,60,0.00,,,0.00,Cumulus v1.9.1,2014-01-20 02:18:00,
2014-01-19 21:19:00,35.8,23.3,29.74,SW,220,1.0,1.0,60,0.00,,,0.00,Cumulus v1.9.1,2014-01-20 02:19:00,
2014-01-19 21:20:00,35.8,23.3,29.74,SW,220,1.0,1.0,60,0.00,,,0.00,Cumulus v1.9.1,2014-01-20 02:20:00,
2014-01-19 21:22:00,35.8,23.3,29.74,SW,217,0.0,3.0,60,0.00,,,0.00,Cumulus v1.9.1,2014-01-20 02:22:00,
2014-01-19 21:24:00,35.8,23.3,29.74,SW,222,0.0,3.0,60,0.00,,,0.00,Cumulus v1.9.1,2014-01-20 02:24:00,
2014-01-19 21:25:00,35.8,23.3,29.74,SW,222,0.0,3.0,60,0.00,,,0.00,Cumulus v1.9.1,2014-01-20 02:25:00,
2014-01-19 21:28:00,35.8,23.3,29.74,SSW,209,1.0,3.0,60,0.00,,,0.00,Cumulus v1.9.1,2014-01-20 02:28:00,
2014-01-19 21:30:00,36.0,23.0,29.74,SW,233,0.0,4.0,59,0.00,,,0.00,Cumulus v1.9.1,2014-01-20 02:30:00,
2014-01-19 21:31:00,36.0,23.0,29.74,WSW,241,6.0,6.0,59,0.00,,,0.00,Cumulus v1.9.1,2014-01-20 02:31:00,
2014-01-19 21:33:00,36.0,23.0,29.74,SW,215,0.0,6.0,59,0.00,,,0.00,Cumulus v1.9.1,2014-01-20 02:33:00,
2014-01-19 21:35:00,36.2,23.2,29.74,SW,234,3.0,6.0,59,0.00,,,0.00,Cumulus v1.9.1,2014-01-20 02:35:00,
2014-01-19 21:37:00,36.2,23.2,29.74,SW,229,1.0,6.0,59,0.00,,,0.00,Cumulus v1.9.1,2014-01-20 02:37:00,
2014-01-19 21:38:00,36.2,23.2,29.74,SW,229,1.0,6.0,59,0.00,,,0.00,Cumulus v1.9.1,2014-01-20 02:38:00,
2014-01-19 21:40:00,36.2,23.2,29.74,WNW,291,0.0,6.0,59,0.00,,,0.00,Cumulus v1.9.1,2014-01-20 02:40:00,
2014-01-19 21:41:00,36.2,23.2,29.74,WNW,291,0.0,6.0,59,0.00,,,0.00,Cumulus v1.9.1,2014-01-20 02:41:00,
2014-01-19 21:42:00,36.2,23.2,29.74,SSW,213,0.0,3.0,59,0.00,,,0.00,Cumulus v1.9.1,2014-01-20 02:42:00,
2014-01-19 21:43:00,36.5,23.5,29.74,WSW,239,0.0,5.0,59,0.00,,,0.00,Cumulus v1.9.1,2014-01-20 02:43:00,
2014-01-19 21:44:00,36.5,23.5,29.74,WSW,239,0.0,5.0,59,0.00,,,0.00,Cumulus v1.9.1,2014-01-20 02:44:00,
2014-01-19 21:46:00,36.5,23.5,29.73,WSW,239,1.0,5.0,59,0.00,,,0.00,Cumulus v1.9.1,2014-01-20 02:46:00,
2014-01-19 21:47:00,36.5,23.5,29.73,WSW,246,3.0,5.0,59,0.00,,,0.00,Cumulus v1.9.1,2014-01-20 02:47:00,
2014-01-19 21:49:00,36.6,23.6,29.73,SSE,154,0.0,5.0,59,0.00,,,0.00,Cumulus v1.9.1,2014-01-20 02:49:00,
2014-01-19 21:51:00,36.6,23.6,29.73,SW,224,2.0,5.0,59,0.00,,,0.00,Cumulus v1.9.1,2014-01-20 02:51:00,
2014-01-19 21:52:00,36.8,23.8,29.73,WSW,239,3.0,5.0,59,0.00,,,0.00,Cumulus v1.9.1,2014-01-20 02:52:00,
2014-01-19 21:53:00,36.8,23.8,29.73,WSW,239,3.0,3.0,59,0.00,,,0.00,Cumulus v1.9.1,2014-01-20 02:53:00,
2014-01-19 21:54:00,36.8,23.0,29.73,West,274,0.0,4.0,57,0.00,,,0.00,Cumulus v1.9.1,2014-01-20 02:54:00,
2014-01-19 21:55:00,36.8,23.0,29.73,West,274,0.0,4.0,57,0.00,,,0.00,Cumulus v1.9.1,2014-01-20 02:55:00,
2014-01-19 21:56:00,36.8,23.0,29.73,SSW,206,1.0,4.0,57,0.00,,,0.00,Cumulus v1.9.1,2014-01-20 02:56:00,
2014-01-19 21:57:00,36.8,23.0,29.73,SSW,206,1.0,4.0,57,0.00,,,0.00,Cumulus v1.9.1,2014-01-20 02:57:00,
2014-01-19 21:59:00,36.8,23.0,29.73,SSW,206,1.0,4.0,57,0.00,,,0.00,Cumulus v1.9.1,2014-01-20 02:59:00,
2014-01-19 22:00:00,36.8,23.0,29.73,SSW,206,1.0,4.0,57,0.00,,,0.00,Cumulus v1.9.1,2014-01-20 03:00:00,
2014-01-19 22:01:00,36.8,23.0,29.73,SSW,206,1.0,4.0,57,0.00,,,0.00,Cumulus v1.9.1,2014-01-20 03:01:00,
2014-01-19 22:02:00,36.8,23.0,29.73,SSW,206,1.0,4.0,57,0.00,,,0.00,Cumulus v1.9.1,2014-01-20 03:02:00,
2014-01-19 22:04:00,36.8,23.0,29.73,SSW,206,1.0,4.0,57,0.00,,,0.00,Cumulus v1.9.1,2014-01-20 03:04:00,
2014-01-19 22:06:00,36.8,23.0,29.73,SSW,206,1.0,4.0,57,0.00,,,0.00,Cumulus v1.9.1,2014-01-20 03:06:00,
2014-01-19 22:07:00,36.8,23.0,29.73,SSW,206,1.0,4.0,57,0.00,,,0.00,Cumulus v1.9.1,2014-01-20 03:07:00,
2014-01-19 22:09:00,36.8,23.0,29.73,SSW,206,1.0,4.0,57,0.00,,,0.00,Cumulus v1.9.1,2014-01-20 03:09:00,
2014-01-19 22:11:00,36.8,23.0,29.73,SSW,206,1.0,4.0,57,0.00,,,0.00,Cumulus v1.9.1,2014-01-20 03:11:00,
2014-01-19 22:12:00,36.8,23.0,29.73,SSW,206,1.0,4.0,57,0.00,,,0.00,Cumulus v1.9.1,2014-01-20 03:12:00,
2014-01-19 22:15:00,36.8,23.0,29.73,SSW,206,1.0,4.0,57,0.00,,,0.00,Cumulus v1.9.1,2014-01-20 03:15:00,
2014-01-19 22:16:00,36.8,23.0,29.73,SSW,206,1.0,4.0,57,0.00,,,0.00,Cumulus v1.9.1,2014-01-20 03:16:00,
2014-01-19 22:17:00,36.8,23.0,29.73,SSW,206,1.0,4.0,57,0.00,,,0.00,Cumulus v1.9.1,2014-01-20 03:17:00,
2014-01-19 22:18:00,36.8,23.0,29.73,SSW,206,1.0,4.0,57,0.00,,,0.00,Cumulus v1.9.1,2014-01-20 03:18:00,
2014-01-19 22:20:00,36.8,23.0,29.73,SSW,206,1.0,4.0,57,0.00,,,0.00,Cumulus v1.9.1,2014-01-20 03:20:00,
2014-01-19 22:22:00,36.8,23.0,29.73,SSW,206,1.0,4.0,57,0.00,,,0.00,Cumulus v1.9.1,2014-01-20 03:22:00,
2014-01-19 22:23:00,36.6,22.8,29.73,SSW,206,1.0,4.0,57,0.00,,,0.00,Cumulus v1.9.1,2014-01-20 03:23:00,
2014-01-19 22:24:00,36.6,22.8,29.73,SSW,206,1.0,4.0,57,0.00,,,0.00,Cumulus v1.9.1,2014-01-20 03:24:00,
2014-01-19 22:25:00,36.6,22.8,29.73,SSW,206,1.0,4.0,57,0.00,,,0.00,Cumulus v1.9.1,2014-01-20 03:25:00,
2014-01-19 22:27:00,36.6,22.8,29.73,SSW,206,1.0,4.0,57,0.00,,,0.00,Cumulus v1.9.1,2014-01-20 03:27:00,
2014-01-19 22:28:00,36.6,22.8,29.73,SSW,206,1.0,4.0,57,0.00,,,0.00,Cumulus v1.9.1,2014-01-20 03:28:00,
2014-01-19 22:29:00,36.6,22.8,29.73,SSW,206,1.0,4.0,57,0.00,,,0.00,Cumulus v1.9.1,2014-01-20 03:29:00,
2014-01-19 22:31:00,36.6,22.8,29.73,SSW,206,1.0,4.0,57,0.00,,,0.00,Cumulus v1.9.1,2014-01-20 03:31:00,
2014-01-19 22:32:00,36.6,22.8,29.73,SSW,206,1.0,4.0,57,0.00,,,0.00,Cumulus v1.9.1,2014-01-20 03:32:00,
2014-01-19 22:33:00,36.6,22.8,29.73,SSW,206,1.0,4.0,57,0.00,,,0.00,Cumulus v1.9.1,2014-01-20 03:33:00,
2014-01-19 22:34:00,36.6,22.8,29.73,SSW,206,1.0,4.0,57,0.00,,,0.00,Cumulus v1.9.1,2014-01-20 03:34:00,
2014-01-19 22:35:00,36.6,22.8,29.73,SSW,206,1.0,4.0,57,0.00,,,0.00,Cumulus v1.9.1,2014-01-20 03:35:00,
2014-01-19 22:37:00,36.6,22.8,29.73,SSW,206,1.0,4.0,57,0.00,,,0.00,Cumulus v1.9.1,2014-01-20 03:37:00,
2014-01-19 22:38:00,36.6,22.8,29.73,SSW,206,1.0,4.0,57,0.00,,,0.00,Cumulus v1.9.1,2014-01-20 03:38:00,
2014-01-19 22:39:00,36.6,22.8,29.73,SSW,206,1.0,4.0,57,0.00,,,0.00,Cumulus v1.9.1,2014-01-20 03:39:00,
2014-01-19 22:40:00,36.6,22.8,29.73,SSW,206,1.0,4.0,57,0.00,,,0.00,Cumulus v1.9.1,2014-01-20 03:40:00,
2014-01-19 22:42:00,36.6,22.8,29.73,SSW,206,1.0,4.0,57,0.00,,,0.00,Cumulus v1.9.1,2014-01-20 03:42:00,
2014-01-19 22:43:00,36.6,22.8,29.73,SW,223,0.0,0.0,57,0.00,,,0.00,Cumulus v1.9.1,2014-01-20 03:43:00,
2014-01-19 22:44:00,36.6,22.8,29.73,SW,223,0.0,0.0,57,0.00,,,0.00,Cumulus v1.9.1,2014-01-20 03:44:00,
2014-01-19 22:46:00,36.6,22.8,29.73,SW,223,0.0,0.0,57,0.00,,,0.00,Cumulus v1.9.1,2014-01-20 03:46:00,
2014-01-19 22:47:00,36.6,22.8,29.73,SW,223,0.0,0.0,57,0.00,,,0.00,Cumulus v1.9.1,2014-01-20 03:47:00,
2014-01-19 22:48:00,36.6,22.8,29.73,SW,223,0.0,0.0,57,0.00,,,0.00,Cumulus v1.9.1,2014-01-20 03:48:00,
2014-01-19 22:49:00,36.6,22.8,29.73,SW,223,0.0,0.0,57,0.00,,,0.00,Cumulus v1.9.1,2014-01-20 03:49:00,
2014-01-19 22:50:00,36.6,22.8,29.73,SW,223,0.0,0.0,57,0.00,,,0.00,Cumulus v1.9.1,2014-01-20 03:50:00,
2014-01-19 22:51:00,36.0,22.2,29.73,SW,223,0.0,0.0,57,0.00,,,0.00,Cumulus v1.9.1,2014-01-20 03:51:00,
2014-01-19 22:53:00,36.0,22.2,29.73,SW,223,0.0,0.0,57,0.00,,,0.00,Cumulus v1.9.1,2014-01-20 03:53:00,
2014-01-19 22:54:00,36.0,22.2,29.73,SW,223,0.0,0.0,57,0.00,,,0.00,Cumulus v1.9.1,2014-01-20 03:54:00,
2014-01-19 22:55:00,36.0,22.2,29.73,SW,223,0.0,0.0,57,0.00,,,0.00,Cumulus v1.9.1,2014-01-20 03:55:00,
2014-01-19 22:57:00,36.0,22.2,29.73,SW,223,0.0,0.0,57,0.00,,,0.00,Cumulus v1.9.1,2014-01-20 03:57:00,
2014-01-19 22:58:00,36.0,22.2,29.73,SW,223,0.0,0.0,57,0.00,,,0.00,Cumulus v1.9.1,2014-01-20 03:58:00,
2014-01-19 22:59:00,36.0,22.2,29.73,SW,223,0.0,0.0,57,0.00,,,0.00,Cumulus v1.9.1,2014-01-20 03:59:00,
2014-01-19 23:00:00,36.0,22.2,29.73,SW,223,0.0,0.0,57,0.00,,,0.00,Cumulus v1.9.1,2014-01-20 04:00:00,
2014-01-19 23:01:00,36.0,22.2,29.73,SW,223,0.0,0.0,57,0.00,,,0.00,Cumulus v1.9.1,2014-01-20 04:01:00,
2014-01-19 23:02:00,36.0,22.2,29.73,SW,223,0.0,0.0,57,0.00,,,0.00,Cumulus v1.9.1,2014-01-20 04:02:00,
2014-01-19 23:04:00,36.0,22.2,29.73,SW,223,0.0,0.0,57,0.00,,,0.00,Cumulus v1.9.1,2014-01-20 04:04:00,
2014-01-19 23:06:00,36.0,22.2,29.73,SW,223,0.0,0.0,57,0.00,,,0.00,Cumulus v1.9.1,2014-01-20 04:06:00,
2014-01-19 23:07:00,36.0,22.2,29.73,SW,223,0.0,0.0,57,0.00,,,0.00,Cumulus v1.9.1,2014-01-20 04:07:00,
2014-01-19 23:09:00,36.0,22.2,29.73,SW,223,0.0,0.0,57,0.00,,,0.00,Cumulus v1.9.1,2014-01-20 04:09:00,
2014-01-19 23:10:00,36.0,22.2,29.73,SW,223,0.0,0.0,57,0.00,,,0.00,Cumulus v1.9.1,2014-01-20 04:10:00,
2014-01-19 23:11:00,36.0,22.2,29.73,SW,223,0.0,0.0,57,0.00,,,0.00,Cumulus v1.9.1,2014-01-20 04:11:00,
2014-01-19 23:12:00,36.0,22.2,29.73,SW,223,0.0,0.0,57,0.00,,,0.00,Cumulus v1.9.1,2014-01-20 04:12:00,
2014-01-19 23:14:00,36.0,22.2,29.73,SW,223,0.0,0.0,57,0.00,,,0.00,Cumulus v1.9.1,2014-01-20 04:14:00,
2014-01-19 23:15:00,36.0,22.2,29.72,SW,223,0.0,0.0,57,0.00,,,0.00,Cumulus v1.9.1,2014-01-20 04:15:00,
2014-01-19 23:16:00,36.0,22.2,29.72,SW,223,0.0,0.0,57,0.00,,,0.00,Cumulus v1.9.1,2014-01-20 04:16:00,
2014-01-19 23:17:00,36.0,22.2,29.72,SW,223,0.0,0.0,57,0.00,,,0.00,Cumulus v1.9.1,2014-01-20 04:17:00,
2014-01-19 23:18:00,36.0,22.2,29.72,SW,223,0.0,0.0,57,0.00,,,0.00,Cumulus v1.9.1,2014-01-20 04:18:00,
2014-01-19 23:19:00,36.0,22.2,29.72,SW,223,0.0,0.0,57,0.00,,,0.00,Cumulus v1.9.1,2014-01-20 04:19:00,
2014-01-19 23:20:00,36.0,22.2,29.72,SW,223,0.0,0.0,57,0.00,,,0.00,Cumulus v1.9.1,2014-01-20 04:20:00,
2014-01-19 23:22:00,36.0,22.2,29.72,SW,223,0.0,0.0,57,0.00,,,0.00,Cumulus v1.9.1,2014-01-20 04:22:00,
2014-01-19 23:23:00,36.0,22.2,29.72,SW,223,0.0,0.0,57,0.00,,,0.00,Cumulus v1.9.1,2014-01-20 04:23:00,
2014-01-19 23:25:00,36.0,22.2,29.72,SW,223,0.0,0.0,57,0.00,,,0.00,Cumulus v1.9.1,2014-01-20 04:25:00,
2014-01-19 23:26:00,36.0,22.2,29.72,SW,223,0.0,0.0,57,0.00,,,0.00,Cumulus v1.9.1,2014-01-20 04:26:00,
2014-01-19 23:27:00,36.0,22.2,29.72,SW,223,0.0,0.0,57,0.00,,,0.00,Cumulus v1.9.1,2014-01-20 04:27:00,
2014-01-19 23:28:00,36.0,22.2,29.72,SW,223,0.0,0.0,57,0.00,,,0.00,Cumulus v1.9.1,2014-01-20 04:28:00,
2014-01-19 23:31:00,36.0,22.2,29.72,SW,223,0.0,0.0,57,0.00,,,0.00,Cumulus v1.9.1,2014-01-20 04:31:00,
2014-01-19 23:32:00,36.0,22.2,29.72,SW,223,0.0,0.0,57,0.00,,,0.00,Cumulus v1.9.1,2014-01-20 04:32:00,
2014-01-19 23:33:00,36.0,22.2,29.72,SW,223,0.0,0.0,57,0.00,,,0.00,Cumulus v1.9.1,2014-01-20 04:33:00,
2014-01-19 23:34:00,36.0,22.2,29.72,SW,223,0.0,0.0,57,0.00,,,0.00,Cumulus v1.9.1,2014-01-20 04:34:00,
2014-01-19 23:35:00,36.0,22.2,29.72,SW,223,0.0,0.0,57,0.00,,,0.00,Cumulus v1.9.1,2014-01-20 04:35:00,
2014-01-19 23:36:00,36.0,22.2,29.72,SW,223,0.0,0.0,57,0.00,,,0.00,Cumulus v1.9.1,2014-01-20 04:36:00,
2014-01-19 23:37:00,36.0,22.2,29.72,SW,223,0.0,0.0,57,0.00,,,0.00,Cumulus v1.9.1,2014-01-20 04:37:00,
2014-01-19 23:38:00,36.0,22.2,29.72,SW,223,0.0,0.0,57,0.00,,,0.00,Cumulus v1.9.1,2014-01-20 04:38:00,
2014-01-19 23:39:00,36.0,22.2,29.72,SW,223,0.0,0.0,57,0.00,,,0.00,Cumulus v1.9.1,2014-01-20 04:39:00,
2014-01-19 23:40:00,36.0,22.2,29.72,SW,223,0.0,0.0,57,0.00,,,0.00,Cumulus v1.9.1,2014-01-20 04:40:00,
2014-01-19 23:41:00,36.0,22.2,29.72,SW,223,0.0,0.0,57,0.00,,,0.00,Cumulus v1.9.1,2014-01-20 04:41:00,
2014-01-19 23:42:00,36.0,22.2,29.72,SW,223,0.0,0.0,57,0.00,,,0.00,Cumulus v1.9.1,2014-01-20 04:42:00,
2014-01-19 23:43:00,36.0,22.2,29.72,SW,223,0.0,0.0,57,0.00,,,0.00,Cumulus v1.9.1,2014-01-20 04:43:00,
2014-01-19 23:44:00,36.0,22.2,29.72,SW,223,0.0,0.0,57,0.00,,,0.00,Cumulus v1.9.1,2014-01-20 04:44:00,
2014-01-19 23:45:00,36.0,22.2,29.72,SW,223,0.0,0.0,57,0.00,,,0.00,Cumulus v1.9.1,2014-01-20 04:45:00,
2014-01-19 23:46:00,36.0,22.2,29.72,SW,223,0.0,0.0,57,0.00,,,0.00,Cumulus v1.9.1,2014-01-20 04:46:00,
2014-01-19 23:47:00,36.0,22.2,29.72,SW,223,0.0,0.0,57,0.00,,,0.00,Cumulus v1.9.1,2014-01-20 04:47:00,
2014-01-19 23:50:00,36.0,22.2,29.72,SW,223,0.0,0.0,57,0.00,,,0.00,Cumulus v1.9.1,2014-01-20 04:50:00,
2014-01-19 23:51:00,36.0,22.2,29.72,SW,223,0.0,0.0,57,0.00,,,0.00,Cumulus v1.9.1,2014-01-20 04:51:00,
2014-01-19 23:52:00,36.0,22.2,29.72,SW,223,0.0,0.0,57,0.00,,,0.00,Cumulus v1.9.1,2014-01-20 04:52:00,
2014-01-19 23:54:00,36.0,22.2,29.72,SW,223,0.0,0.0,57,0.00,,,0.00,Cumulus v1.9.1,2014-01-20 04:54:00,
2014-01-19 23:55:00,36.0,22.2,29.72,SW,223,0.0,0.0,57,0.00,,,0.00,Cumulus v1.9.1,2014-01-20 04:55:00,
2014-01-19 23:56:00,36.0,22.2,29.72,SW,223,0.0,0.0,57,0.00,,,0.00,Cumulus v1.9.1,2014-01-20 04:56:00,
2014-01-19 23:57:00,36.0,22.2,29.72,SW,223,0.0,0.0,57,0.00,,,0.00,Cumulus v1.9.1,2014-01-20 04:57:00,
2014-01-19 23:59:00,35.2,21.5,29.72,SW,223,0.0,0.0,57,0.00,,,0.00,Cumulus v1.9.1,2014-01-20 04:59:00,